Regional Weather Roundup
Issued by NWS State College, PA

Home | Current Version | Previous Version | Text Only | Print | Product List | Glossary On
Versions: 1 2 3 4 5 6 7 8 9 10 11 12 13 14 15 16 17 18 19 20 21 22 23 24 25 26 27 28 29 30 31 32 33 34 35 36 37 38 39 40 41 42 43 44 45 46 47 48 49 50
000
ASUS41 KCTP 042310
RWRCTP

REGIONAL WEATHER ROUNDUP
NATIONAL WEATHER SERVICE STATE COLLEGE PA
700 PM EDT SAT JUL 04 2015

Note: "fair" indicates few or no clouds below 12,000 feet with no
significant weather and/or obstructions to visibility.

* = STATION THAT DOES NOT REPORT PRECIPITATION /E.G. RAIN...SNOW...ETC/
    THUNDER OR FOG.

PAZ002>004-007>009-013>016-020>023-029>032-050000-
WESTERN PENNSYLVANIA

CITY           SKY/WX    TMP DP  RH WIND       PRES   REMARKS
ERIE           SUNNY     71  53  52 W6        30.00S
MEADVILLE      SUNNY     70  49  47 NW7       30.02S
FRANKLIN*      SUNNY     72  48  43 NW6       30.03R
NEW CASTLE     FAIR      76  54  46 N7        30.01S
BEAVER COUNTY  NOT AVBL
BUTLER*        SUNNY     75  55  50 NW5       30.02R
PITTSBURGH INT MOSUNNY   78  54  43 NW12      29.99S
PITTSBURGH     SUNNY     76  53  44 NW6       29.98R
INDIANA*       SUNNY     77  64  65 VRB7      30.02R
LATROBE        MOSUNNY   75  63  64 NW13      29.99R
WASHINGTON CO* NOT AVBL
$$

PAZ004>006-010>012-017>019-024>028-033>037-041-042-045-046-049>053-050000-
CENTRAL PENNSYLVANIA

CITY           SKY/WX    TMP DP  RH WIND       PRES   REMARKS
BRADFORD       SUNNY     70  55  59 NW13      30.01R
DUBOIS         MOSUNNY   76  59  55 NW8       29.98R
CLEARFIELD     LGT RAIN  72  65  78 NE7       29.98R
JOHNSTOWN      PTSUNNY   73  62  68 W10       30.01S
ALTOONA        MOSUNNY   71  65  81 E3        29.99R
STATE COLLEGE  MOSUNNY   70  63  78 CALM      29.99R
WILLIAMSPORT   CLOUDY    69  62  78 E6        29.97R
SELINSGROVE    CLOUDY    69  63  81 CALM      29.98S
FT INDIANTOWN  CLOUDY    69  63  83 N2        29.97S
CAPITAL CITY   CLOUDY    69  63  81 E6        29.97R
HARRISBURG     CLOUDY    69  65  86 S3        29.96R FOG
YORK           CLOUDY    68  66  93 CALM      29.97R FOG
$$

PAZ038>040-043-044-047-048-054-055-060>062-067>071-050000-
EASTERN PENNSYLVANIA

CITY           SKY/WX    TMP DP  RH WIND       PRES   REMARKS
SCRANTON       CLOUDY    66  62  87 E5        29.99S FOG
MOUNT POCONO   CLOUDY    63  57  81 CALM      30.02R
ALLENTOWN      CLOUDY    68  63  84 N5        29.98R
QUAKERTOWN*    CLOUDY    72  61  68 NE3       29.99R
READING        CLOUDY    68  64  87 CALM      29.97R
LANCASTER      LGT RAIN  67  64  90 NE7       29.97R FOG
COATESVILLE    CLOUDY    68  66  94 N3        29.98R
POTTSTOWN      LGT RAIN  66  65  96 NE3       29.99R FOG
BLUE BELL      PTSUNNY   72  64  78 CALM      29.96R
DOYLESTOWN     CLOUDY    70  59  68 CALM      29.97R
WILLOW GROVE   NOT AVBL
NORTH PHILA    CLOUDY    74  57  55 NE7       29.97R
PHILADELPHIA   LGT RAIN  72  61  68 E7        29.96R
$$


USA.gov is the U.S. government's official web portal to all federal, state and local government web resources and services.